Time,TemperatureF,DewpointF,PressureIn,WindDirection,WindDirectionDegrees,WindSpeedMPH,WindSpeedGustMPH,Humidity,HourlyPrecipIn,Conditions,Clouds,dailyrainin,SolarRadiationWatts/m^2,SoftwareType,DateUTC
2013-02-20 00:00:00,14.7,6.7,30.19,ESE,119,8.0,18.0,70,0.00,,BKN110,0.00,0.00,VWS V14.01,2013-02-20 07:00:00,
2013-02-20 00:05:00,14.7,6.7,30.17,SE,144,10.0,15.0,70,0.00,,SCT220,0.00,0.00,VWS V14.01,2013-02-20 07:05:00,
2013-02-20 00:10:00,14.7,6.7,30.17,SSE,155,7.0,15.0,70,0.00,,SCT220,0.00,0.00,VWS V14.01,2013-02-20 07:10:00,
2013-02-20 00:15:00,14.7,6.7,30.17,SE,126,15.0,17.0,70,0.00,,SCT220,0.00,0.00,VWS V14.01,2013-02-20 07:15:00,
2013-02-20 00:20:00,14.6,6.6,30.17,ESE,121,10.0,20.0,70,0.00,,SCT220,0.00,0.00,VWS V14.01,2013-02-20 07:20:00,
2013-02-20 00:25:00,14.4,6.4,30.17,ESE,123,11.0,20.0,70,0.00,,SCT220,0.00,0.00,VWS V14.01,2013-02-20 07:25:00,
2013-02-20 00:30:00,14.2,6.2,30.17,SE,136,13.0,20.0,70,0.00,,SCT220,0.00,0.00,VWS V14.01,2013-02-20 07:30:00,
2013-02-20 00:35:00,13.9,6.2,30.17,SE,143,6.0,18.0,71,0.00,,SCT220,0.00,0.00,VWS V14.01,2013-02-20 07:35:00,
2013-02-20 00:40:00,13.7,6.1,30.17,SE,132,15.0,18.0,71,0.00,,SCT220,0.00,0.00,VWS V14.01,2013-02-20 07:40:00,
2013-02-20 00:45:00,13.7,6.4,30.16,SSE,157,4.0,18.0,72,0.00,,SCT220,0.00,0.00,VWS V14.01,2013-02-20 07:45:00,
2013-02-20 00:50:00,13.7,6.4,30.16,SE,138,10.0,18.0,72,0.00,,SCT220,0.00,0.00,VWS V14.01,2013-02-20 07:50:00,
2013-02-20 00:55:00,13.8,6.5,30.16,SE,133,7.0,18.0,72,0.00,,SCT220,0.00,0.00,VWS V14.01,2013-02-20 07:55:00,
2013-02-20 01:00:00,13.9,6.6,30.16,SE,125,11.0,18.0,72,0.00,,SCT220,0.00,0.00,VWS V14.01,2013-02-20 08:00:00,
2013-02-20 01:05:00,13.9,6.6,30.17,SE,127,13.0,17.0,72,0.00,,SCT220,0.00,0.00,VWS V14.01,2013-02-20 08:05:00,
2013-02-20 01:10:00,14.0,6.7,30.16,SSE,156,6.0,17.0,72,0.00,,SCT220,0.00,0.00,VWS V14.01,2013-02-20 08:10:00,
2013-02-20 01:15:00,14.1,6.8,30.16,SSE,147,11.0,17.0,72,0.00,,SCT220,0.00,0.00,VWS V14.01,2013-02-20 08:15:00,
2013-02-20 01:20:00,14.2,6.8,30.16,SSE,159,11.0,17.0,72,0.00,,SCT220,0.00,0.00,VWS V14.01,2013-02-20 08:20:00,
2013-02-20 01:25:00,14.4,7.0,30.16,SE,134,11.0,19.0,72,0.00,,SCT220,0.00,0.00,VWS V14.01,2013-02-20 08:25:00,
2013-02-20 01:30:00,14.3,6.9,30.15,SSE,164,8.0,19.0,72,0.00,,SCT220,0.00,0.00,VWS V14.01,2013-02-20 08:30:00,
2013-02-20 01:35:00,14.2,6.8,30.15,SSE,148,8.0,20.0,72,0.00,,CLR,0.00,0.00,VWS V14.01,2013-02-20 08:35:00,
2013-02-20 01:40:00,14.1,6.8,30.15,SSE,150,10.0,20.0,72,0.00,,CLR,0.00,0.00,VWS V14.01,2013-02-20 08:40:00,
2013-02-20 01:45:00,14.2,6.8,30.15,SE,136,15.0,20.0,72,0.00,,CLR,0.00,0.00,VWS V14.01,2013-02-20 08:45:00,
2013-02-20 01:50:00,14.2,6.5,30.15,SSE,154,9.0,20.0,71,0.00,,CLR,0.00,0.00,VWS V14.01,2013-02-20 08:50:00,
2013-02-20 01:55:00,14.0,6.7,30.14,SE,138,13.0,20.0,72,0.00,,CLR,0.00,0.00,VWS V14.01,2013-02-20 08:55:00,
2013-02-20 02:00:00,13.8,6.5,30.14,SE,144,11.0,20.0,72,0.00,,CLR,0.00,0.00,VWS V14.01,2013-02-20 09:00:00,
2013-02-20 02:05:00,13.6,6.3,30.13,SE,140,14.0,16.0,72,0.00,,CLR,0.00,0.00,VWS V14.01,2013-02-20 09:05:00,
2013-02-20 02:10:00,13.3,6.3,30.14,SE,129,10.0,16.0,73,0.00,,CLR,0.00,0.00,VWS V14.01,2013-02-20 09:10:00,
2013-02-20 02:15:00,13.2,6.2,30.14,SE,126,10.0,16.0,73,0.00,,CLR,0.00,0.00,VWS V14.01,2013-02-20 09:15:00,
2013-02-20 02:20:00,13.2,6.2,30.14,SSE,152,7.0,16.0,73,0.00,,CLR,0.00,0.00,VWS V14.01,2013-02-20 09:20:00,
2013-02-20 02:25:00,13.3,6.6,30.14,SE,137,11.0,16.0,74,0.00,,CLR,0.00,0.00,VWS V14.01,2013-02-20 09:25:00,
2013-02-20 02:30:00,13.1,6.1,30.14,SSE,155,7.0,16.0,73,0.00,,CLR,0.00,0.00,VWS V14.01,2013-02-20 09:30:00,
2013-02-20 02:35:00,12.7,6.0,30.14,SE,136,3.0,11.0,74,0.00,,BKN200,0.00,0.00,VWS V14.01,2013-02-20 09:35:00,
2013-02-20 02:40:00,12.6,5.9,30.14,SSE,148,6.0,12.0,74,0.00,,BKN200,0.00,0.00,VWS V14.01,2013-02-20 09:40:00,
2013-02-20 02:45:00,12.6,6.2,30.13,SSE,157,10.0,13.0,75,0.00,,BKN200,0.00,0.00,VWS V14.01,2013-02-20 09:45:00,
2013-02-20 02:51:00,12.4,6.0,30.13,SE,132,8.0,13.0,75,0.00,,BKN200,0.00,0.00,VWS V14.01,2013-02-20 09:51:00,
2013-02-20 02:55:00,12.5,6.4,30.13,SE,146,7.0,13.0,76,0.00,,BKN200,0.00,0.00,VWS V14.01,2013-02-20 09:55:00,
2013-02-20 03:00:00,12.7,6.6,30.12,SE,145,5.0,13.0,76,0.00,,,0.00,0.00,VWS V14.01,2013-02-20 10:00:00,
2013-02-20 03:01:00,12.7,6.6,30.12,SE,140,3.0,13.0,76,0.00,,BKN200,0.00,0.00,VWS V14.01,2013-02-20 10:01:00,
2013-02-20 03:06:00,12.7,6.6,30.12,SE,140,2.0,6.0,76,0.00,,CLR,0.00,0.00,VWS V14.01,2013-02-20 10:06:00,
2013-02-20 03:11:00,12.9,6.8,30.12,SE,138,10.0,12.0,76,0.00,,CLR,0.00,0.00,VWS V14.01,2013-02-20 10:11:00,
2013-02-20 03:16:00,13.2,6.8,30.12,SE,146,4.0,12.0,75,0.00,,CLR,0.00,0.00,VWS V14.01,2013-02-20 10:16:00,
2013-02-20 03:21:00,13.2,6.8,30.11,SSE,156,3.0,12.0,75,0.00,,CLR,0.00,0.00,VWS V14.01,2013-02-20 10:21:00,
2013-02-20 03:26:00,13.2,6.8,30.11,SSE,164,4.0,12.0,75,0.00,,CLR,0.00,0.00,VWS V14.01,2013-02-20 10:26:00,
2013-02-20 03:30:00,13.5,7.1,30.11,SE,128,6.0,12.0,75,0.00,,,0.00,0.00,VWS V14.01,2013-02-20 10:30:00,
2013-02-20 03:31:00,13.5,7.1,30.11,SSE,161,1.0,12.0,75,0.00,,CLR,0.00,0.00,VWS V14.01,2013-02-20 10:31:00,
2013-02-20 03:36:00,13.8,7.4,30.11,SE,138,11.0,12.0,75,0.00,,CLR,0.00,0.00,VWS V14.01,2013-02-20 10:36:00,
2013-02-20 03:41:00,13.9,7.2,30.10,SSE,157,8.0,13.0,74,0.00,,CLR,0.00,0.00,VWS V14.01,2013-02-20 10:41:00,
2013-02-20 03:46:00,14.2,7.4,30.10,SSE,148,8.0,16.0,74,0.00,,CLR,0.00,0.00,VWS V14.01,2013-02-20 10:46:00,
2013-02-20 03:51:00,14.1,7.3,30.10,SSE,158,10.0,16.0,74,0.00,,CLR,0.00,0.00,VWS V14.01,2013-02-20 10:51:00,
2013-02-20 03:56:00,14.0,7.2,30.10,SE,146,11.0,16.0,74,0.00,,CLR,0.00,0.00,VWS V14.01,2013-02-20 10:56:00,
2013-02-20 04:00:00,14.2,7.4,30.10,SE,134,14.0,16.0,74,0.00,,,0.00,0.00,VWS V14.01,2013-02-20 11:00:00,
2013-02-20 04:01:00,14.3,7.6,30.10,SE,146,7.0,16.0,74,0.00,,CLR,0.00,0.00,VWS V14.01,2013-02-20 11:01:00,
2013-02-20 04:06:00,14.1,7.3,30.10,SE,126,14.0,19.0,74,0.00,,CLR,0.00,0.00,VWS V14.01,2013-02-20 11:06:00,
2013-02-20 04:11:00,14.5,7.7,30.10,SE,140,7.0,19.0,74,0.00,,CLR,0.00,0.00,VWS V14.01,2013-02-20 11:11:00,
2013-02-20 04:16:00,14.6,7.5,30.09,SSE,158,7.0,19.0,73,0.00,,CLR,0.00,0.00,VWS V14.01,2013-02-20 11:16:00,
2013-02-20 04:21:00,14.2,7.2,30.10,SSE,152,5.0,19.0,73,0.00,,CLR,0.00,0.00,VWS V14.01,2013-02-20 11:21:00,
2013-02-20 04:26:00,13.8,7.1,30.10,SSE,160,8.0,19.0,74,0.00,,CLR,0.00,0.00,VWS V14.01,2013-02-20 11:26:00,
2013-02-20 04:30:00,13.7,7.3,30.10,SE,142,6.0,19.0,75,0.00,,,0.00,0.00,VWS V14.01,2013-02-20 11:30:00,
2013-02-20 04:31:00,13.7,7.3,30.10,SE,129,9.0,19.0,75,0.00,,CLR,0.00,0.00,VWS V14.01,2013-02-20 11:31:00,
2013-02-20 04:36:00,14.1,7.7,30.10,SSE,158,9.0,16.0,75,0.00,,CLR,0.00,0.00,VWS V14.01,2013-02-20 11:36:00,
2013-02-20 04:41:00,14.1,7.3,30.09,SE,138,9.0,16.0,74,0.00,,CLR,0.00,0.00,VWS V14.01,2013-02-20 11:41:00,
2013-02-20 04:46:00,14.2,7.4,30.09,SE,125,7.0,16.0,74,0.00,,CLR,0.00,0.00,VWS V14.01,2013-02-20 11:46:00,
2013-02-20 04:51:00,14.2,7.4,30.09,SE,125,11.0,19.0,74,0.00,,CLR,0.00,0.00,VWS V14.01,2013-02-20 11:51:00,
2013-02-20 04:56:00,13.8,7.1,30.10,ESE,120,14.0,19.0,74,0.00,,CLR,0.00,0.00,VWS V14.01,2013-02-20 11:56:00,
2013-02-20 05:00:00,13.4,7.0,30.10,SE,126,10.0,19.0,75,0.00,,,0.00,0.00,VWS V14.01,2013-02-20 12:00:00,
2013-02-20 05:01:00,13.4,7.0,30.10,SE,146,13.0,19.0,75,0.00,,CLR,0.00,0.00,VWS V14.01,2013-02-20 12:01:00,
2013-02-20 05:06:00,13.1,6.7,30.10,SE,138,11.0,17.0,75,0.00,,BKN190,0.00,0.00,VWS V14.01,2013-02-20 12:06:00,
2013-02-20 05:11:00,13.3,7.2,30.10,SE,139,13.0,17.0,76,0.00,,BKN190,0.00,0.00,VWS V14.01,2013-02-20 12:11:00,
2013-02-20 05:16:00,13.4,7.3,30.10,SE,130,8.0,20.0,76,0.00,,BKN190,0.00,0.00,VWS V14.01,2013-02-20 12:16:00,
2013-02-20 05:21:00,13.1,7.0,30.10,SE,138,10.0,20.0,76,0.00,,BKN190,0.00,0.00,VWS V14.01,2013-02-20 12:21:00,
2013-02-20 05:26:00,13.0,6.9,30.10,SE,135,12.0,20.0,76,0.00,,BKN190,0.00,0.00,VWS V14.01,2013-02-20 12:26:00,
2013-02-20 05:30:00,13.2,7.1,30.10,SE,126,11.0,21.0,76,0.00,,,0.00,0.00,VWS V14.01,2013-02-20 12:30:00,
2013-02-20 05:31:00,13.2,7.1,30.10,SE,126,11.0,21.0,76,0.00,,BKN190,0.00,0.00,VWS V14.01,2013-02-20 12:31:00,
2013-02-20 05:36:00,13.3,7.2,30.10,SSE,156,12.0,21.0,76,0.00,,BKN190,0.00,0.00,VWS V14.01,2013-02-20 12:36:00,
2013-02-20 05:41:00,13.4,7.3,30.09,SE,134,15.0,25.0,76,0.00,,BKN190,0.00,0.00,VWS V14.01,2013-02-20 12:41:00,
2013-02-20 05:46:00,13.4,7.3,30.09,SE,138,16.0,25.0,76,0.00,,BKN190,0.00,0.00,VWS V14.01,2013-02-20 12:46:00,
2013-02-20 05:51:00,13.4,7.3,30.09,SSE,151,10.0,25.0,76,0.00,,BKN190,0.00,0.00,VWS V14.01,2013-02-20 12:51:00,
2013-02-20 05:56:00,13.4,7.3,30.09,ESE,123,12.0,25.0,76,0.00,,BKN190,0.00,0.00,VWS V14.01,2013-02-20 12:56:00,
2013-02-20 06:00:00,13.5,7.4,30.08,SSE,167,12.0,25.0,76,0.00,,,0.00,0.00,VWS V14.01,2013-02-20 13:00:00,
2013-02-20 06:01:00,13.5,7.4,30.08,SSE,167,12.0,25.0,76,0.00,,BKN190,0.00,0.00,VWS V14.01,2013-02-20 13:01:00,
2013-02-20 06:06:00,13.6,7.5,30.09,SE,130,17.0,19.0,76,0.00,,BKN190,0.00,0.00,VWS V14.01,2013-02-20 13:06:00,
2013-02-20 06:11:00,13.5,7.1,30.09,SSE,153,15.0,22.0,75,0.00,,BKN190,0.00,0.00,VWS V14.01,2013-02-20 13:11:00,
2013-02-20 06:16:00,13.4,7.3,30.10,SE,146,11.0,22.0,76,0.00,,BKN190,0.00,0.00,VWS V14.01,2013-02-20 13:16:00,
2013-02-20 06:21:00,13.4,7.0,30.10,SE,144,12.0,22.0,75,0.00,,BKN190,0.00,0.00,VWS V14.01,2013-02-20 13:21:00,
2013-02-20 06:26:00,13.2,6.8,30.10,ESE,123,14.0,22.0,75,0.00,,BKN190,0.00,0.00,VWS V14.01,2013-02-20 13:26:00,
2013-02-20 06:30:00,13.1,7.0,30.10,SE,145,11.0,22.0,76,0.00,,,0.00,0.00,VWS V14.01,2013-02-20 13:30:00,
2013-02-20 06:31:00,13.1,7.0,30.10,ESE,119,13.0,13.0,76,0.00,,BKN190,0.00,0.00,VWS V14.01,2013-02-20 13:31:00,
2013-02-20 06:36:00,13.1,7.0,30.10,SSE,153,15.0,19.0,76,0.00,,BKN190,0.00,0.00,VWS V14.01,2013-02-20 13:36:00,
2013-02-20 06:41:00,13.1,7.0,30.10,SSE,150,16.0,19.0,76,0.00,,BKN190,0.00,0.00,VWS V14.01,2013-02-20 13:41:00,
2013-02-20 06:46:00,13.3,7.2,30.10,SE,136,12.0,19.0,76,0.00,,BKN190,0.00,5.00,VWS V14.01,2013-02-20 13:46:00,
2013-02-20 06:51:00,13.4,7.3,30.10,SE,128,16.0,19.0,76,0.00,,BKN190,0.00,12.00,VWS V14.01,2013-02-20 13:51:00,
2013-02-20 06:56:00,13.3,7.2,30.10,SE,138,10.0,19.0,76,0.00,,BKN190,0.00,18.00,VWS V14.01,2013-02-20 13:56:00,
2013-02-20 07:00:00,13.1,7.0,30.10,SE,128,12.0,19.0,76,0.00,,,0.00,23.00,VWS V14.01,2013-02-20 14:00:00,
2013-02-20 07:01:00,13.1,7.0,30.10,ESE,115,10.0,12.0,76,0.00,,BKN190,0.00,25.00,VWS V14.01,2013-02-20 14:01:00,
2013-02-20 07:06:00,13.1,7.3,30.10,SSE,147,9.0,14.0,77,0.00,,SCT190,0.00,33.00,VWS V14.01,2013-02-20 14:06:00,
2013-02-20 07:11:00,13.2,7.3,30.10,SE,146,5.0,16.0,77,0.00,,SCT190,0.00,56.00,VWS V14.01,2013-02-20 14:11:00,
2013-02-20 07:16:00,13.6,7.7,30.10,SE,141,10.0,16.0,77,0.00,,SCT190,0.00,72.00,VWS V14.01,2013-02-20 14:16:00,
2013-02-20 07:21:00,13.8,7.9,30.10,ESE,118,9.0,16.0,77,0.00,,SCT190,0.00,69.00,VWS V14.01,2013-02-20 14:21:00,
2013-02-20 07:26:00,14.1,7.9,30.10,SE,134,14.0,16.0,76,0.00,,SCT190,0.00,76.00,VWS V14.01,2013-02-20 14:26:00,
2013-02-20 07:30:00,14.2,8.0,30.10,SE,137,11.0,16.0,76,0.00,,,0.00,76.00,VWS V14.01,2013-02-20 14:30:00,
2013-02-20 07:31:00,14.3,8.1,30.10,SSE,148,13.0,13.0,76,0.00,,SCT190,0.00,81.00,VWS V14.01,2013-02-20 14:31:00,
2013-02-20 07:36:00,14.5,8.3,30.10,SE,127,9.0,14.0,76,0.00,,SCT190,0.00,95.00,VWS V14.01,2013-02-20 14:36:00,
2013-02-20 07:41:00,14.7,8.5,30.10,SE,131,13.0,15.0,76,0.00,,SCT190,0.00,95.00,VWS V14.01,2013-02-20 14:41:00,
2013-02-20 07:46:00,14.9,8.4,30.10,SE,142,9.0,16.0,75,0.00,,SCT190,0.00,84.00,VWS V14.01,2013-02-20 14:46:00,
2013-02-20 07:51:00,15.1,8.6,30.09,ESE,117,10.0,16.0,75,0.00,,SCT190,0.00,91.00,VWS V14.01,2013-02-20 14:51:00,
2013-02-20 07:56:00,15.9,9.4,30.09,ESE,119,11.0,16.0,75,0.00,,SCT190,0.00,100.00,VWS V14.01,2013-02-20 14:56:00,
2013-02-20 08:00:00,16.5,9.7,30.09,ESE,121,13.0,16.0,74,0.00,,,0.00,105.00,VWS V14.01,2013-02-20 15:00:00,
2013-02-20 08:01:00,16.5,9.7,30.08,SSE,150,10.0,11.0,74,0.00,,SCT190,0.00,105.00,VWS V14.01,2013-02-20 15:01:00,
2013-02-20 08:06:00,17.0,9.9,30.08,SE,125,13.0,17.0,73,0.00,,SCT190,0.00,107.00,VWS V14.01,2013-02-20 15:06:00,
2013-02-20 08:11:00,17.3,10.1,30.08,SE,126,9.0,17.0,73,0.00,,SCT190,0.00,114.00,VWS V14.01,2013-02-20 15:11:00,
2013-02-20 08:16:00,17.7,10.2,30.07,SSE,151,13.0,17.0,72,0.00,,SCT190,0.00,130.00,VWS V14.01,2013-02-20 15:16:00,
2013-02-20 08:21:00,18.2,10.7,30.08,SE,126,10.0,17.0,72,0.00,,SCT190,0.00,132.00,VWS V14.01,2013-02-20 15:21:00,
2013-02-20 08:26:00,19.1,10.9,30.07,SE,132,12.0,17.0,70,0.00,,SCT190,0.00,142.00,VWS V14.01,2013-02-20 15:26:00,
2013-02-20 08:30:00,19.7,11.2,30.07,SSE,161,7.0,18.0,69,0.00,,,0.00,169.00,VWS V14.01,2013-02-20 15:30:00,
2013-02-20 08:31:00,19.7,11.2,30.07,SSE,159,8.0,9.0,69,0.00,,SCT190,0.00,169.00,VWS V14.01,2013-02-20 15:31:00,
2013-02-20 08:36:00,20.0,11.1,30.07,SSE,160,11.0,20.0,68,0.00,,SCT190,0.00,176.00,VWS V14.01,2013-02-20 15:36:00,
2013-02-20 08:41:00,20.4,11.2,30.06,SSE,167,7.0,20.0,67,0.00,,SCT190,0.00,192.00,VWS V14.01,2013-02-20 15:41:00,
2013-02-20 08:46:00,21.0,11.8,30.07,SE,142,14.0,20.0,67,0.00,,SCT190,0.00,193.00,VWS V14.01,2013-02-20 15:46:00,
2013-02-20 08:51:00,21.6,11.7,30.06,SE,145,15.0,20.0,65,0.00,,SCT190,0.00,195.00,VWS V14.01,2013-02-20 15:51:00,
2013-02-20 08:56:00,21.8,11.5,30.06,SE,138,16.0,20.0,64,0.00,,SCT190,0.00,193.00,VWS V14.01,2013-02-20 15:56:00,
2013-02-20 09:00:00,22.2,11.9,30.05,SSE,159,12.0,20.0,64,0.00,,,0.00,188.00,VWS V14.01,2013-02-20 16:00:00,
2013-02-20 09:01:00,22.2,11.9,30.05,SSE,155,15.0,16.0,64,0.00,,CLR,0.00,188.00,VWS V14.01,2013-02-20 16:01:00,
2013-02-20 09:06:00,22.4,11.7,30.05,South,169,14.0,21.0,63,0.00,,CLR,0.00,206.00,VWS V14.01,2013-02-20 16:06:00,
2013-02-20 09:11:00,22.7,12.0,30.06,South,180,15.0,21.0,63,0.00,,CLR,0.00,225.00,VWS V14.01,2013-02-20 16:11:00,
2013-02-20 09:16:00,23.6,12.5,30.05,South,189,14.0,21.0,62,0.00,,CLR,0.00,264.00,VWS V14.01,2013-02-20 16:16:00,
2013-02-20 09:21:00,23.2,11.4,30.05,South,173,18.0,25.0,60,0.00,,CLR,0.00,302.00,VWS V14.01,2013-02-20 16:21:00,
2013-02-20 09:26:00,23.3,11.9,30.06,South,173,15.0,27.0,61,0.00,,CLR,0.00,311.00,VWS V14.01,2013-02-20 16:26:00,
2013-02-20 09:30:00,23.5,12.0,30.05,SSE,168,14.0,27.0,61,0.00,,,0.00,308.00,VWS V14.01,2013-02-20 16:30:00,
2013-02-20 09:32:00,23.4,11.6,30.05,South,172,12.0,14.0,60,0.00,,CLR,0.00,304.00,VWS V14.01,2013-02-20 16:32:00,
2013-02-20 09:37:00,23.7,11.9,30.05,SSE,159,14.0,21.0,60,0.00,,CLR,0.00,329.00,VWS V14.01,2013-02-20 16:37:00,
2013-02-20 09:42:00,23.9,12.1,30.04,SSE,166,11.0,22.0,60,0.00,,CLR,0.00,374.00,VWS V14.01,2013-02-20 16:42:00,
2013-02-20 09:47:00,23.9,12.1,30.04,South,172,15.0,24.0,60,0.00,,CLR,0.00,292.00,VWS V14.01,2013-02-20 16:47:00,
2013-02-20 09:52:00,24.4,12.1,30.04,SSE,156,13.0,24.0,59,0.00,,CLR,0.00,329.00,VWS V14.01,2013-02-20 16:52:00,
2013-02-20 09:57:00,24.5,12.2,30.04,SSE,167,21.0,24.0,59,0.00,,CLR,0.00,369.00,VWS V14.01,2013-02-20 16:57:00,
2013-02-20 10:00:00,24.3,12.1,30.04,South,179,15.0,24.0,59,0.00,,,0.00,381.00,VWS V14.01,2013-02-20 17:00:00,
2013-02-20 10:02:00,24.3,12.1,30.04,SSW,192,15.0,16.0,59,0.00,,BKN190,0.00,399.00,VWS V14.01,2013-02-20 17:02:00,
2013-02-20 10:07:00,24.4,12.1,30.04,South,179,12.0,25.0,59,0.00,,BKN190,0.00,367.00,VWS V14.01,2013-02-20 17:07:00,
2013-02-20 10:12:00,24.9,12.6,30.04,South,180,12.0,25.0,59,0.00,,BKN190,0.00,376.00,VWS V14.01,2013-02-20 17:12:00,
2013-02-20 10:17:00,24.8,12.1,30.04,South,190,18.0,25.0,58,0.00,,BKN190,0.00,394.00,VWS V14.01,2013-02-20 17:17:00,
2013-02-20 10:22:00,25.0,12.3,30.04,South,169,7.0,27.0,58,0.00,,BKN190,0.00,427.00,VWS V14.01,2013-02-20 17:22:00,
2013-02-20 10:27:00,25.3,12.2,30.04,South,175,18.0,27.0,57,0.00,,BKN190,0.00,411.00,VWS V14.01,2013-02-20 17:27:00,
2013-02-20 10:30:00,25.3,12.2,30.05,SSE,152,11.0,27.0,57,0.00,,,0.00,380.00,VWS V14.01,2013-02-20 17:30:00,
2013-02-20 10:32:00,25.3,12.2,30.05,South,186,18.0,20.0,57,0.00,,BKN190,0.00,380.00,VWS V14.01,2013-02-20 17:32:00,
2013-02-20 10:37:00,25.3,12.2,30.05,SSE,168,15.0,20.0,57,0.00,,BKN190,0.00,378.00,VWS V14.01,2013-02-20 17:37:00,
2013-02-20 10:42:00,25.2,12.1,30.04,SSE,168,11.0,23.0,57,0.00,,BKN190,0.00,399.00,VWS V14.01,2013-02-20 17:42:00,
2013-02-20 10:47:00,25.3,12.2,30.05,SSE,167,12.0,23.0,57,0.00,,BKN190,0.00,394.00,VWS V14.01,2013-02-20 17:47:00,
2013-02-20 10:52:00,25.8,12.7,30.03,SSE,153,17.0,23.0,57,0.00,,BKN190,0.00,406.00,VWS V14.01,2013-02-20 17:52:00,
2013-02-20 10:57:00,25.9,12.8,30.03,SSE,168,12.0,23.0,57,0.00,,BKN190,0.00,413.00,VWS V14.01,2013-02-20 17:57:00,
2013-02-20 11:00:00,26.4,13.2,30.03,South,179,14.0,23.0,57,0.00,,,0.00,371.00,VWS V14.01,2013-02-20 18:00:00,
2013-02-20 11:02:00,26.4,12.8,30.04,South,178,13.0,19.0,56,0.00,,FEW150,0.00,359.00,VWS V14.01,2013-02-20 18:02:00,
2013-02-20 11:07:00,26.2,13.1,30.04,SSE,159,14.0,23.0,57,0.00,,FEW150,0.00,406.00,VWS V14.01,2013-02-20 18:07:00,
2013-02-20 11:12:00,26.4,12.8,30.04,SSE,164,10.0,23.0,56,0.00,,FEW150,0.00,415.00,VWS V14.01,2013-02-20 18:12:00,
2013-02-20 11:17:00,26.0,12.5,30.04,South,170,13.0,23.0,56,0.00,,FEW150,0.00,425.00,VWS V14.01,2013-02-20 18:17:00,
2013-02-20 11:22:00,26.3,12.8,30.04,SSE,167,15.0,23.0,56,0.00,,FEW150,0.00,434.00,VWS V14.01,2013-02-20 18:22:00,
2013-02-20 11:27:00,26.5,12.9,30.03,SSE,153,16.0,24.0,56,0.00,,FEW150,0.00,425.00,VWS V14.01,2013-02-20 18:27:00,
2013-02-20 11:30:00,26.5,12.9,30.03,SSE,161,6.0,24.0,56,0.00,,,0.00,418.00,VWS V14.01,2013-02-20 18:30:00,
2013-02-20 11:32:00,26.6,13.4,30.03,SSE,155,13.0,16.0,57,0.00,,FEW150,0.00,443.00,VWS V14.01,2013-02-20 18:32:00,
2013-02-20 11:37:00,27.0,13.0,30.03,SSE,160,19.0,20.0,55,0.00,,FEW150,0.00,438.00,VWS V14.01,2013-02-20 18:37:00,
2013-02-20 11:42:00,26.8,13.2,30.03,SSW,192,20.0,25.0,56,0.00,,FEW150,0.00,343.00,VWS V14.01,2013-02-20 18:42:00,
2013-02-20 11:47:00,27.5,13.5,30.03,SSE,156,13.0,25.0,55,0.00,,FEW150,0.00,487.00,VWS V14.01,2013-02-20 18:47:00,
2013-02-20 11:52:00,28.1,14.0,30.03,SSE,150,15.0,25.0,55,0.00,,FEW150,0.00,455.00,VWS V14.01,2013-02-20 18:52:00,
2013-02-20 11:57:00,28.1,14.0,30.02,South,178,18.0,25.0,55,0.00,,FEW150,0.00,436.00,VWS V14.01,2013-02-20 18:57:00,
2013-02-20 12:00:00,28.4,13.9,30.02,South,180,17.0,25.0,54,0.00,,,0.00,443.00,VWS V14.01,2013-02-20 19:00:00,
2013-02-20 12:02:00,28.2,13.7,30.02,SSE,165,17.0,21.0,54,0.00,,FEW130,0.00,445.00,VWS V14.01,2013-02-20 19:02:00,
2013-02-20 12:07:00,28.4,14.3,30.02,South,180,12.0,23.0,55,0.00,,FEW130,0.00,432.00,VWS V14.01,2013-02-20 19:07:00,
2013-02-20 12:12:00,28.7,14.2,30.02,South,180,14.0,25.0,54,0.00,,FEW130,0.00,374.00,VWS V14.01,2013-02-20 19:12:00,
2013-02-20 12:17:00,28.8,14.3,30.02,South,179,17.0,25.0,54,0.00,,FEW130,0.00,348.00,VWS V14.01,2013-02-20 19:17:00,
2013-02-20 12:22:00,28.5,14.4,30.01,South,180,7.0,25.0,55,0.00,,FEW130,0.00,318.00,VWS V14.01,2013-02-20 19:22:00,
2013-02-20 12:27:00,29.0,14.9,30.01,SSE,149,10.0,25.0,55,0.00,,FEW130,0.00,490.00,VWS V14.01,2013-02-20 19:27:00,
2013-02-20 12:30:00,29.1,15.0,30.01,South,178,15.0,25.0,55,0.00,,,0.00,515.00,VWS V14.01,2013-02-20 19:30:00,
2013-02-20 12:32:00,29.3,15.1,30.01,SSE,157,16.0,17.0,55,0.00,,FEW130,0.00,503.00,VWS V14.01,2013-02-20 19:32:00,
2013-02-20 12:37:00,30.1,15.5,30.00,SSE,153,13.0,20.0,54,0.00,,FEW130,0.00,504.00,VWS V14.01,2013-02-20 19:37:00,
2013-02-20 12:42:00,29.8,14.8,30.00,SSE,159,9.0,21.0,53,0.00,,FEW130,0.00,515.00,VWS V14.01,2013-02-20 19:42:00,
2013-02-20 12:47:00,30.5,15.0,30.00,SSE,148,9.0,21.0,52,0.00,,FEW130,0.00,415.00,VWS V14.01,2013-02-20 19:47:00,
2013-02-20 12:52:00,30.2,15.1,30.00,SSE,151,14.0,21.0,53,0.00,,FEW130,0.00,450.00,VWS V14.01,2013-02-20 19:52:00,
2013-02-20 12:57:00,30.5,15.0,29.99,SE,140,16.0,21.0,52,0.00,,FEW130,0.00,508.00,VWS V14.01,2013-02-20 19:57:00,
2013-02-20 13:00:00,31.2,16.1,29.99,SSE,149,11.0,21.0,53,0.00,,,0.00,531.00,VWS V14.01,2013-02-20 20:00:00,
2013-02-20 13:02:00,31.4,15.8,29.99,SE,141,17.0,17.0,52,0.00,,FEW130,0.00,533.00,VWS V14.01,2013-02-20 20:02:00,
2013-02-20 13:07:00,31.3,15.7,29.99,SE,130,15.0,19.0,52,0.00,,FEW130,0.00,533.00,VWS V14.01,2013-02-20 20:07:00,
2013-02-20 13:12:00,32.1,16.0,29.98,South,169,12.0,19.0,51,0.00,,FEW130,0.00,515.00,VWS V14.01,2013-02-20 20:12:00,
2013-02-20 13:17:00,31.8,15.8,29.97,South,169,11.0,24.0,51,0.00,,FEW130,0.00,468.00,VWS V14.01,2013-02-20 20:17:00,
2013-02-20 13:22:00,32.2,16.1,29.97,South,170,13.0,24.0,51,0.00,,FEW130,0.00,450.00,VWS V14.01,2013-02-20 20:22:00,
2013-02-20 13:27:00,32.9,16.8,29.97,South,189,14.0,24.0,51,0.00,,FEW130,0.00,490.00,VWS V14.01,2013-02-20 20:27:00,
2013-02-20 13:30:00,32.5,15.9,29.97,SSE,158,10.0,24.0,50,0.00,,,0.00,473.00,VWS V14.01,2013-02-20 20:30:00,
2013-02-20 13:32:00,32.2,16.1,29.97,SE,146,9.0,14.0,51,0.00,,FEW130,0.00,480.00,VWS V14.01,2013-02-20 20:32:00,
2013-02-20 13:37:00,32.7,16.6,29.97,SSE,157,12.0,18.0,51,0.00,,FEW130,0.00,425.00,VWS V14.01,2013-02-20 20:37:00,
2013-02-20 13:42:00,33.3,17.1,29.97,SSE,166,17.0,18.0,51,0.00,,FEW130,0.00,508.00,VWS V14.01,2013-02-20 20:42:00,
2013-02-20 13:47:00,33.0,16.9,29.97,SSW,208,12.0,20.0,51,0.00,,FEW130,0.00,329.00,VWS V14.01,2013-02-20 20:47:00,
2013-02-20 13:52:00,33.1,17.0,29.97,South,171,12.0,20.0,51,0.00,,FEW130,0.00,316.00,VWS V14.01,2013-02-20 20:52:00,
2013-02-20 13:57:00,33.4,17.7,29.97,SSE,160,15.0,20.0,52,0.00,,FEW130,0.00,350.00,VWS V14.01,2013-02-20 20:57:00,
2013-02-20 14:00:00,33.2,17.5,29.97,SSE,162,11.0,20.0,52,0.00,,,0.00,343.00,VWS V14.01,2013-02-20 21:00:00,
2013-02-20 14:02:00,33.0,17.3,29.97,South,169,11.0,17.0,52,0.00,,FEW130,0.00,343.00,VWS V14.01,2013-02-20 21:02:00,
2013-02-20 14:07:00,33.1,17.8,29.97,SSE,164,14.0,22.0,53,0.00,,FEW130,0.00,320.00,VWS V14.01,2013-02-20 21:07:00,
2013-02-20 14:12:00,33.0,18.2,29.97,SSE,160,10.0,22.0,54,0.00,,FEW130,0.00,308.00,VWS V14.01,2013-02-20 21:12:00,
2013-02-20 14:17:00,33.0,18.6,29.96,SSE,167,14.0,22.0,55,0.00,,FEW130,0.00,255.00,VWS V14.01,2013-02-20 21:17:00,
2013-02-20 14:22:00,32.7,18.8,29.97,SSE,163,12.0,22.0,56,0.00,,FEW130,0.00,206.00,VWS V14.01,2013-02-20 21:22:00,
2013-02-20 14:27:00,32.6,19.1,29.96,SSE,163,11.0,22.0,57,0.00,,FEW130,0.00,183.00,VWS V14.01,2013-02-20 21:27:00,
2013-02-20 14:30:00,32.3,18.8,29.96,SE,142,16.0,22.0,57,0.00,,,0.00,204.00,VWS V14.01,2013-02-20 21:30:00,
2013-02-20 14:32:00,32.2,19.1,29.97,South,178,14.0,19.0,58,0.00,,FEW038,0.00,225.00,VWS V14.01,2013-02-20 21:32:00,
2013-02-20 14:37:00,32.2,19.9,29.96,SE,145,15.0,24.0,60,0.00,,FEW038,0.00,311.00,VWS V14.01,2013-02-20 21:37:00,
2013-02-20 14:42:00,32.4,19.7,29.96,SSE,165,16.0,24.0,59,0.00,,FEW038,0.00,257.00,VWS V14.01,2013-02-20 21:42:00,
2013-02-20 14:47:00,31.4,19.5,29.97,SSE,160,12.0,24.0,61,0.00,,FEW038,0.00,223.00,VWS V14.01,2013-02-20 21:47:00,
2013-02-20 14:52:00,31.1,19.2,29.97,SE,136,24.0,25.0,61,0.00,,FEW038,0.00,230.00,VWS V14.01,2013-02-20 21:52:00,
2013-02-20 14:57:00,30.9,19.0,29.97,SSE,148,12.0,25.0,61,0.00,,FEW038,0.00,311.00,VWS V14.01,2013-02-20 21:57:00,
2013-02-20 15:00:00,30.9,19.4,29.97,SSE,168,14.0,25.0,62,0.00,,,0.00,188.00,VWS V14.01,2013-02-20 22:00:00,
2013-02-20 15:02:00,30.9,19.4,29.97,SE,130,12.0,15.0,62,0.00,,FEW038,0.00,186.00,VWS V14.01,2013-02-20 22:02:00,
2013-02-20 15:07:00,30.9,19.4,29.97,SSE,163,13.0,19.0,62,0.00,,FEW038,0.00,183.00,VWS V14.01,2013-02-20 22:07:00,
2013-02-20 15:12:00,30.5,19.4,29.97,SSE,149,15.0,23.0,63,0.00,,FEW038,0.00,207.00,VWS V14.01,2013-02-20 22:12:00,
2013-02-20 15:17:00,30.2,19.1,29.97,SSE,167,14.0,23.0,63,0.00,,FEW038,0.00,211.00,VWS V14.01,2013-02-20 22:17:00,
2013-02-20 15:22:00,30.1,19.0,29.97,SSE,157,16.0,23.0,63,0.00,,FEW038,0.00,204.00,VWS V14.01,2013-02-20 22:22:00,
2013-02-20 15:27:00,30.0,19.3,29.97,SE,144,14.0,23.0,64,0.00,,FEW038,0.00,179.00,VWS V14.01,2013-02-20 22:27:00,
2013-02-20 15:30:00,29.7,19.0,29.97,SSE,149,10.0,23.0,64,0.00,,,0.00,156.00,VWS V14.01,2013-02-20 22:30:00,
2013-02-20 15:33:00,29.7,19.0,29.97,SSE,147,15.0,17.0,64,0.00,,BKN055,0.00,141.00,VWS V14.01,2013-02-20 22:33:00,
2013-02-20 15:38:00,29.7,19.0,29.97,SSE,164,11.0,19.0,64,0.00,,BKN055,0.00,125.00,VWS V14.01,2013-02-20 22:38:00,
2013-02-20 15:43:00,29.2,18.5,29.98,SSE,161,16.0,19.0,64,0.00,,BKN055,0.00,114.00,VWS V14.01,2013-02-20 22:43:00,
2013-02-20 15:48:00,29.0,18.7,29.98,South,169,13.0,21.0,65,0.00,,BKN055,0.00,114.00,VWS V14.01,2013-02-20 22:48:00,
2013-02-20 15:53:00,29.0,18.4,29.98,South,169,12.0,21.0,64,0.00,,BKN055,0.00,118.00,VWS V14.01,2013-02-20 22:53:00,
2013-02-20 15:58:00,28.9,18.6,29.98,South,173,12.0,21.0,65,0.00,,BKN055,0.00,109.00,VWS V14.01,2013-02-20 22:58:00,
2013-02-20 16:00:00,28.9,18.6,29.98,SSE,157,7.0,21.0,65,0.00,,,0.00,104.00,VWS V14.01,2013-02-20 23:00:00,
2013-02-20 16:03:00,29.2,18.9,29.98,South,174,9.0,14.0,65,0.00,,OVC039,0.00,102.00,VWS V14.01,2013-02-20 23:03:00,
2013-02-20 16:08:00,28.7,18.8,29.98,SSE,160,9.0,22.0,66,0.00,,OVC039,0.00,95.00,VWS V14.01,2013-02-20 23:08:00,
2013-02-20 16:13:00,28.8,18.9,29.98,SSE,150,17.0,22.0,66,0.00,,OVC039,0.00,90.00,VWS V14.01,2013-02-20 23:13:00,
2013-02-20 16:18:00,28.7,18.8,29.98,SE,146,15.0,22.0,66,0.00,,OVC039,0.00,67.00,VWS V14.01,2013-02-20 23:18:00,
2013-02-20 16:23:00,28.5,19.0,29.99,SSE,163,13.0,22.0,67,0.00,,OVC039,0.00,62.00,VWS V14.01,2013-02-20 23:23:00,
2013-02-20 16:28:00,28.4,19.2,29.99,SE,144,10.0,22.0,68,0.00,,OVC039,0.00,60.00,VWS V14.01,2013-02-20 23:28:00,
2013-02-20 16:30:00,28.4,18.9,29.98,South,181,18.0,22.0,67,0.00,,,0.00,56.00,VWS V14.01,2013-02-20 23:30:00,
2013-02-20 16:33:00,28.4,19.2,29.99,SSE,150,15.0,18.0,68,0.00,,OVC039,0.00,54.00,VWS V14.01,2013-02-20 23:33:00,
2013-02-20 16:38:00,28.2,19.0,29.99,SSE,160,13.0,18.0,68,0.00,,OVC039,0.00,49.00,VWS V14.01,2013-02-20 23:38:00,
2013-02-20 16:43:00,28.2,19.0,30.00,SSE,152,12.0,20.0,68,0.00,,OVC039,0.00,40.00,VWS V14.01,2013-02-20 23:43:00,
2013-02-20 16:48:00,28.2,19.4,30.00,SSW,199,14.0,20.0,69,0.00,,OVC039,0.00,32.00,VWS V14.01,2013-02-20 23:48:00,
2013-02-20 16:53:00,28.2,19.4,30.00,South,182,12.0,20.0,69,0.00,,OVC039,0.00,25.00,VWS V14.01,2013-02-20 23:53:00,
2013-02-20 16:58:00,28.1,19.3,30.00,SSE,167,12.0,20.0,69,0.00,,OVC039,0.00,19.00,VWS V14.01,2013-02-20 23:58:00,
2013-02-20 17:00:00,27.9,19.1,30.00,SSE,149,11.0,20.0,69,0.00,,,0.00,14.00,VWS V14.01,2013-02-21 00:00:00,
2013-02-20 17:03:00,27.9,19.1,30.00,SE,145,13.0,15.0,69,0.00,,OVC037,0.00,12.00,VWS V14.01,2013-02-21 00:03:00,
2013-02-20 17:08:00,27.8,19.3,30.00,SSE,167,11.0,19.0,70,0.00,,OVC037,0.00,11.00,VWS V14.01,2013-02-21 00:08:00,
2013-02-20 17:13:00,27.8,19.3,30.00,SSE,150,17.0,19.0,70,0.00,,OVC037,0.00,9.00,VWS V14.01,2013-02-21 00:13:00,
2013-02-20 17:18:00,27.8,19.3,29.99,SSE,168,12.0,19.0,70,0.00,,OVC037,0.00,7.00,VWS V14.01,2013-02-21 00:18:00,
2013-02-20 17:23:00,27.7,19.2,29.99,SSE,162,14.0,19.0,70,0.00,,OVC037,0.00,0.00,VWS V14.01,2013-02-21 00:23:00,
2013-02-20 17:28:00,27.6,19.1,29.99,SSE,155,12.0,24.0,70,0.00,,OVC037,0.00,0.00,VWS V14.01,2013-02-21 00:28:00,
2013-02-20 17:30:00,27.6,19.4,30.00,SE,146,7.0,24.0,71,0.00,,,0.00,0.00,VWS V14.01,2013-02-21 00:30:00,
2013-02-20 17:33:00,27.6,19.4,30.00,SSW,193,15.0,18.0,71,0.00,,OVC037,0.00,0.00,VWS V14.01,2013-02-21 00:33:00,
2013-02-20 17:38:00,27.6,19.4,30.00,South,181,12.0,20.0,71,0.00,,OVC037,0.00,0.00,VWS V14.01,2013-02-21 00:38:00,
2013-02-20 17:43:00,27.6,19.4,30.00,SSE,165,14.0,20.0,71,0.00,,OVC037,0.00,0.00,VWS V14.01,2013-02-21 00:43:00,
2013-02-20 17:48:00,27.5,19.4,30.00,SSE,158,7.0,20.0,71,0.00,,OVC037,0.00,0.00,VWS V14.01,2013-02-21 00:48:00,
2013-02-20 17:53:00,26.8,18.7,30.01,SSE,157,7.0,20.0,71,0.00,,OVC037,0.00,0.00,VWS V14.01,2013-02-21 00:53:00,
2013-02-20 17:58:00,26.3,18.5,30.01,SE,146,10.0,20.0,72,0.00,,OVC037,0.00,0.00,VWS V14.01,2013-02-21 00:58:00,
2013-02-20 18:00:00,26.2,18.4,30.01,SE,138,11.0,20.0,72,0.00,,,0.00,0.00,VWS V14.01,2013-02-21 01:00:00,
2013-02-20 18:03:00,26.2,18.7,30.02,SE,146,11.0,19.0,73,0.00,,OVC036,0.00,0.00,VWS V14.01,2013-02-21 01:03:00,
2013-02-20 18:08:00,26.3,18.5,30.03,SSE,162,7.0,19.0,72,0.00,,OVC036,0.00,0.00,VWS V14.01,2013-02-21 01:08:00,
2013-02-20 18:13:00,26.3,18.8,30.03,SE,143,12.0,19.0,73,0.00,,OVC036,0.00,0.00,VWS V14.01,2013-02-21 01:13:00,
2013-02-20 18:18:00,26.4,18.9,30.03,SSE,168,10.0,19.0,73,0.00,,OVC036,0.00,0.00,VWS V14.01,2013-02-21 01:18:00,
2013-02-20 18:23:00,26.4,18.9,30.03,SSE,152,11.0,19.0,73,0.00,,OVC036,0.00,0.00,VWS V14.01,2013-02-21 01:23:00,
2013-02-20 18:28:00,26.4,18.9,30.02,SE,130,13.0,19.0,73,0.00,,OVC036,0.00,0.00,VWS V14.01,2013-02-21 01:28:00,
2013-02-20 18:30:00,26.4,18.9,30.02,SE,146,7.0,19.0,73,0.00,,,0.00,0.00,VWS V14.01,2013-02-21 01:30:00,
2013-02-20 18:33:00,26.3,18.8,30.03,SE,146,10.0,13.0,73,0.00,,OVC036,0.00,0.00,VWS V14.01,2013-02-21 01:33:00,
2013-02-20 18:38:00,26.2,19.1,30.03,SSE,154,11.0,16.0,74,0.00,,OVC036,0.00,0.00,VWS V14.01,2013-02-21 01:38:00,
2013-02-20 18:43:00,26.3,19.1,30.03,SE,146,7.0,17.0,74,0.00,,OVC036,0.00,0.00,VWS V14.01,2013-02-21 01:43:00,
2013-02-20 18:48:00,26.2,19.1,30.03,SSE,157,15.0,17.0,74,0.00,,OVC036,0.00,0.00,VWS V14.01,2013-02-21 01:48:00,
2013-02-20 18:53:00,26.2,19.4,30.03,SSE,155,13.0,18.0,75,0.00,,OVC036,0.00,0.00,VWS V14.01,2013-02-21 01:53:00,
2013-02-20 18:58:00,26.2,19.4,30.04,SSE,165,9.0,18.0,75,0.00,,OVC036,0.00,0.00,VWS V14.01,2013-02-21 01:58:00,
2013-02-20 19:00:00,26.2,19.4,30.04,SSE,159,11.0,18.0,75,0.00,,,0.00,0.00,VWS V14.01,2013-02-21 02:00:00,
2013-02-20 19:03:00,26.2,19.4,30.02,SE,143,13.0,15.0,75,0.00,,OVC035,0.00,0.00,VWS V14.01,2013-02-21 02:03:00,
2013-02-20 19:08:00,26.2,19.7,30.02,SSE,148,11.0,16.0,76,0.00,,OVC035,0.00,0.00,VWS V14.01,2013-02-21 02:08:00,
2013-02-20 19:13:00,26.2,19.7,30.02,South,170,10.0,17.0,76,0.00,,OVC035,0.00,0.00,VWS V14.01,2013-02-21 02:13:00,
2013-02-20 19:18:00,26.2,19.7,30.02,SSE,149,12.0,17.0,76,0.00,,OVC035,0.00,0.00,VWS V14.01,2013-02-21 02:18:00,
2013-02-20 19:23:00,26.2,19.7,30.02,SSE,157,11.0,17.0,76,0.00,,OVC035,0.00,0.00,VWS V14.01,2013-02-21 02:23:00,
2013-02-20 19:28:00,26.2,19.7,30.02,South,175,10.0,17.0,76,0.00,,OVC035,0.00,0.00,VWS V14.01,2013-02-21 02:28:00,
2013-02-20 19:30:00,26.2,19.7,30.02,SE,146,6.0,17.0,76,0.00,,,0.00,0.00,VWS V14.01,2013-02-21 02:30:00,
2013-02-20 19:33:00,26.2,19.7,30.02,SSE,155,11.0,13.0,76,0.00,,OVC020,0.00,0.00,VWS V14.01,2013-02-21 02:33:00,
2013-02-20 19:38:00,26.2,19.7,30.03,South,172,8.0,14.0,76,0.00,,OVC020,0.00,0.00,VWS V14.01,2013-02-21 02:38:00,
2013-02-20 19:43:00,26.1,19.9,30.02,ESE,121,8.0,14.0,77,0.00,,OVC020,0.00,0.00,VWS V14.01,2013-02-21 02:43:00,
2013-02-20 19:48:00,26.0,19.8,30.02,SSE,158,6.0,17.0,77,0.00,,OVC020,0.00,0.00,VWS V14.01,2013-02-21 02:48:00,
2013-02-20 19:53:00,26.0,19.8,30.02,South,172,7.0,17.0,77,0.00,,OVC020,0.00,0.00,VWS V14.01,2013-02-21 02:53:00,
2013-02-20 19:58:00,26.0,20.1,30.02,SSE,167,10.0,17.0,78,0.00,,OVC020,0.00,0.00,VWS V14.01,2013-02-21 02:58:00,
2013-02-20 20:00:00,26.0,19.8,30.02,SSE,148,14.0,17.0,77,0.00,,,0.00,0.00,VWS V14.01,2013-02-21 03:00:00,
2013-02-20 20:03:00,26.0,20.1,30.00,South,180,7.0,14.0,78,0.00,,OVC020,0.00,0.00,VWS V14.01,2013-02-21 03:03:00,
2013-02-20 20:08:00,26.0,20.1,30.00,SSE,167,12.0,14.0,78,0.00,,OVC020,0.00,0.00,VWS V14.01,2013-02-21 03:08:00,
2013-02-20 20:13:00,25.9,20.0,30.00,SSE,159,5.0,16.0,78,0.00,,OVC020,0.00,0.00,VWS V14.01,2013-02-21 03:13:00,
2013-02-20 20:18:00,25.8,19.9,30.00,SSE,155,7.0,16.0,78,0.00,,OVC020,0.00,0.00,VWS V14.01,2013-02-21 03:18:00,
2013-02-20 20:23:00,25.8,20.2,30.00,SE,136,9.0,16.0,79,0.00,,OVC020,0.00,0.00,VWS V14.01,2013-02-21 03:23:00,
2013-02-20 20:28:00,25.8,20.2,30.00,SSE,167,11.0,16.0,79,0.00,,OVC020,0.00,0.00,VWS V14.01,2013-02-21 03:28:00,
2013-02-20 20:30:00,25.8,20.2,30.00,South,173,10.0,16.0,79,0.00,,,0.00,0.00,VWS V14.01,2013-02-21 03:30:00,
2013-02-20 20:33:00,25.8,20.2,30.00,SSE,160,9.0,11.0,79,0.00,,OVC020,0.00,0.00,VWS V14.01,2013-02-21 03:33:00,
2013-02-20 20:38:00,25.8,20.2,30.00,SSE,153,11.0,16.0,79,0.00,,OVC020,0.00,0.00,VWS V14.01,2013-02-21 03:38:00,
2013-02-20 20:43:00,25.9,20.3,30.00,South,169,6.0,16.0,79,0.00,,OVC020,0.00,0.00,VWS V14.01,2013-02-21 03:43:00,
2013-02-20 20:48:00,25.9,20.3,30.01,SSE,161,6.0,16.0,79,0.00,,OVC020,0.00,0.00,VWS V14.01,2013-02-21 03:48:00,
2013-02-20 20:53:00,25.9,20.3,30.01,SSE,161,7.0,16.0,79,0.00,,OVC020,0.00,0.00,VWS V14.01,2013-02-21 03:53:00,
2013-02-20 20:58:00,25.6,20.0,30.01,SSE,155,9.0,16.0,79,0.00,,OVC020,0.00,0.00,VWS V14.01,2013-02-21 03:58:00,
2013-02-20 21:00:00,25.5,19.9,30.01,SSE,153,12.0,17.0,79,0.00,,,0.00,0.00,VWS V14.01,2013-02-21 04:00:00,
2013-02-20 21:03:00,25.5,20.2,30.01,South,171,6.0,13.0,80,0.00,,OVC020,0.00,0.00,VWS V14.01,2013-02-21 04:03:00,
2013-02-20 21:08:00,25.5,20.2,30.01,SSE,162,6.0,13.0,80,0.00,,OVC020,0.00,0.00,VWS V14.01,2013-02-21 04:08:00,
2013-02-20 21:13:00,25.5,20.2,30.01,SSE,153,10.0,15.0,80,0.00,,OVC020,0.00,0.00,VWS V14.01,2013-02-21 04:13:00,
2013-02-20 21:18:00,25.4,20.1,30.02,SSE,157,9.0,15.0,80,0.00,,OVC020,0.00,0.00,VWS V14.01,2013-02-21 04:18:00,
2013-02-20 21:23:00,25.4,20.1,30.02,SSE,164,7.0,16.0,80,0.00,,OVC020,0.00,0.00,VWS V14.01,2013-02-21 04:23:00,
2013-02-20 21:28:00,25.4,20.1,30.02,SE,134,8.0,16.0,80,0.00,,OVC020,0.00,0.00,VWS V14.01,2013-02-21 04:28:00,
2013-02-20 21:30:00,25.4,20.1,30.02,SSE,159,6.0,16.0,80,0.00,,,0.00,0.00,VWS V14.01,2013-02-21 04:30:00,
2013-02-20 21:33:00,25.4,20.1,30.02,South,175,9.0,12.0,80,0.00,,OVC020,0.00,0.00,VWS V14.01,2013-02-21 04:33:00,
2013-02-20 21:38:00,25.3,20.0,30.02,SSE,155,11.0,15.0,80,0.00,,OVC020,0.00,0.00,VWS V14.01,2013-02-21 04:38:00,
2013-02-20 21:43:00,25.3,20.0,30.02,SSE,147,11.0,15.0,80,0.00,,OVC020,0.00,0.00,VWS V14.01,2013-02-21 04:43:00,
2013-02-20 21:48:00,25.3,20.0,30.02,SSE,151,13.0,15.0,80,0.00,,OVC020,0.00,0.00,VWS V14.01,2013-02-21 04:48:00,
2013-02-20 21:54:00,25.3,20.0,30.02,SE,136,11.0,15.0,80,0.00,,OVC020,0.00,0.00,VWS V14.01,2013-02-21 04:54:00,
2013-02-20 21:59:00,25.3,20.0,30.03,SSE,155,10.0,15.0,80,0.00,,OVC020,0.00,0.00,VWS V14.01,2013-02-21 04:59:00,
2013-02-20 22:00:00,25.3,20.0,30.02,SE,142,11.0,15.0,80,0.00,,OVC020,0.00,0.00,VWS V14.01,2013-02-21 05:00:00,
2013-02-20 22:05:00,25.1,19.8,30.02,SE,146,6.0,12.0,80,0.00,,OVC020,0.00,0.00,VWS V14.01,2013-02-21 05:05:00,
2013-02-20 22:10:00,25.1,19.8,30.02,SSE,157,5.0,12.0,80,0.00,,OVC020,0.00,0.00,VWS V14.01,2013-02-21 05:10:00,
2013-02-20 22:15:00,25.0,20.0,30.02,SSE,161,6.0,12.0,81,0.00,,OVC020,0.00,0.00,VWS V14.01,2013-02-21 05:15:00,
2013-02-20 22:20:00,25.0,20.0,30.02,SSE,163,5.0,13.0,81,0.00,,OVC020,0.00,0.00,VWS V14.01,2013-02-21 05:20:00,
2013-02-20 22:25:00,25.1,20.1,30.02,SSE,150,9.0,13.0,81,0.00,,OVC020,0.00,0.00,VWS V14.01,2013-02-21 05:25:00,
2013-02-20 22:30:00,25.1,20.1,30.02,South,169,5.0,13.0,81,0.00,,OVC020,0.00,0.00,VWS V14.01,2013-02-21 05:30:00,
2013-02-20 22:35:00,25.2,20.2,30.02,South,173,7.0,15.0,81,0.00,,OVC020,0.00,0.00,VWS V14.01,2013-02-21 05:35:00,
2013-02-20 22:40:00,25.2,20.2,30.02,SSE,159,5.0,15.0,81,0.00,,OVC020,0.00,0.00,VWS V14.01,2013-02-21 05:40:00,
2013-02-20 22:45:00,25.1,20.1,30.02,SSE,148,4.0,15.0,81,0.00,,OVC020,0.00,0.00,VWS V14.01,2013-02-21 05:45:00,
2013-02-20 22:50:00,25.1,20.1,30.02,SE,132,9.0,15.0,81,0.00,,OVC020,0.00,0.00,VWS V14.01,2013-02-21 05:50:00,
2013-02-20 22:55:00,25.0,20.3,30.02,SSE,161,9.0,15.0,82,0.00,,OVC020,0.00,0.00,VWS V14.01,2013-02-21 05:55:00,
2013-02-20 23:00:00,25.0,20.3,30.02,SSE,153,9.0,15.0,82,0.00,,OVC020,0.00,0.00,VWS V14.01,2013-02-21 06:00:00,
2013-02-20 23:05:00,25.0,20.3,30.02,SSE,153,7.0,12.0,82,0.00,,OVC020,0.00,0.00,VWS V14.01,2013-02-21 06:05:00,
2013-02-20 23:10:00,25.0,20.3,30.02,SSE,161,6.0,12.0,82,0.00,,OVC020,0.00,0.00,VWS V14.01,2013-02-21 06:10:00,
2013-02-20 23:15:00,25.0,20.3,30.02,South,179,9.0,12.0,82,0.00,,OVC020,0.00,0.00,VWS V14.01,2013-02-21 06:15:00,
2013-02-20 23:20:00,25.0,20.3,30.02,SE,138,9.0,12.0,82,0.00,,OVC020,0.00,0.00,VWS V14.01,2013-02-21 06:20:00,
2013-02-20 23:25:00,25.1,20.7,30.02,South,176,12.0,12.0,83,0.00,,OVC020,0.00,0.00,VWS V14.01,2013-02-21 06:25:00,
2013-02-20 23:30:00,25.1,20.4,30.02,South,172,6.0,14.0,82,0.00,,OVC020,0.00,0.00,VWS V14.01,2013-02-21 06:30:00,
2013-02-20 23:35:00,25.1,20.4,30.02,SE,141,9.0,12.0,82,0.00,,OVC020,0.00,0.00,VWS V14.01,2013-02-21 06:35:00,
2013-02-20 23:40:00,25.1,20.4,30.02,South,184,6.0,13.0,82,0.00,,OVC020,0.00,0.00,VWS V14.01,2013-02-21 06:40:00,
2013-02-20 23:45:00,25.1,20.4,30.02,South,184,7.0,15.0,82,0.00,,OVC020,0.00,0.00,VWS V14.01,2013-02-21 06:45:00,
2013-02-20 23:50:00,25.1,20.7,30.02,SSE,159,7.0,15.0,83,0.00,,OVC020,0.00,0.00,VWS V14.01,2013-02-21 06:50:00,